[[{"header":{"parameterUnit":"m.s-1","parameterCategory":1,"la1":30.2991,"la2":30.254,"lo1":-89.0895,"lo2":-89.0444,"dy":0.0017,"dx":0.0017,"nx":28,"ny":28,"refTime":"2025-12-31T09:00:00:Z","depth":0,"parameterNumber":2,"parameterNumberName":"U-component_of_WINDS"},"data":[0,0,0,0,0,0,0,0,0,0,0,0,0,0,0,0,0,0,0,0,0,0,0,0,0,0,0,0,0,0,0,0,0,0,0,0,0,0,0,0,0,0,0,0,0,0,0,0,0,0,0,0,0,0,0,0,0,0,1.5168,1.5168,0,1.5155,1.5155,1.5155,1.5134,1.5133,1.5133,1.5132,1.5119,1.5119,1.5119,0,0,0,0,0,0,0,0,0,0,0,0,0,1.5174,1.5174,1.5168,1.5168,1.5168,1.5155,1.5155,1.5155,1.5134,1.5133,1.5133,1.5132,1.5119,1.5119,1.5119,0,0,0,0,0,0,0,0,0,0,0,0,0,1.5167,1.5174,1.5168,1.5156,1.5154,1.5155,1.5155,1.5155,1.5134,1.5133,1.5133,1.5132,1.5119,1.5119,1.5119,1.5131,0,0,1.5119,1.5119,0,0,0,0,0,0,0,0,1.5168,1.5167,1.5158,1.5157,1.5155,1.5145,1.5152,1.5147,1.5134,1.5142,1.5132,1.5132,1.5128,1.5127,1.5126,1.513,1.513,1.5119,1.5119,1.5119,1.5119,0,0,0,0,0,0,0,1.5168,1.5168,1.5163,1.5158,1.5156,1.5151,1.5149,1.5151,1.5138,1.5141,1.5139,1.5138,1.5127,1.5126,1.5126,1.5129,1.5119,1.5119,1.5119,1.5119,1.5142,1.5143,0,0,0,0,0,0,1.5171,1.5168,1.5163,1.5163,1.516,1.5151,1.5149,1.5149,1.5138,1.5136,1.5139,1.5137,1.5127,1.5126,1.5125,1.5138,1.5119,1.5119,1.5119,1.5141,1.5142,1.5143,0,0,0,0,0,0,1.5171,1.517,1.5164,1.5165,1.5164,1.5152,1.5152,1.5149,1.5148,1.5137,1.5134,1.514,1.5126,1.5125,1.513,1.5137,1.5119,1.5119,1.5141,1.5142,1.5143,1.5164,0,0,0,0,0,0,1.5171,1.5171,1.5175,1.5165,1.5164,1.5169,1.5152,1.5149,1.5148,1.5146,1.5137,1.5135,1.5126,1.513,1.513,1.5137,1.5119,1.514,1.5141,1.5142,1.5163,1.5166,1.5168,0,0,0,0,0,1.5171,1.5182,1.5175,1.5175,1.5169,1.5169,1.5168,1.5157,1.5149,1.5153,1.5146,1.5135,1.5137,1.513,1.513,1.5138,1.5139,1.5141,1.5142,1.5162,1.5165,1.5168,0,0,0,0,0,0,1.5193,1.518,1.5173,1.518,1.5176,1.5165,1.517,1.5161,1.5159,1.5157,1.5144,1.5142,1.5148,1.5143,1.5136,1.5148,1.5136,1.5138,1.5151,1.5155,1.5157,1.5158,1.5119,0,0,0,0,0,1.5198,1.5199,1.5188,1.5196,1.5194,1.5183,1.5182,1.5174,1.5169,1.5167,1.516,1.5155,1.5155,1.5154,1.5153,1.5162,1.516,1.5167,1.517,1.5172,1.5174,1.5178,1.5181,1.5147,1.5147,1.5147,0,0,1.5209,1.5203,1.5204,1.52,1.5195,1.5197,1.5181,1.5183,1.5184,1.5167,1.5171,1.5166,1.5159,1.5166,1.5169,1.5162,1.5183,1.5174,1.5176,1.5176,1.518,1.5183,1.5186,1.5148,1.5148,1.5148,0,0,1.5231,1.5226,1.5232,1.5228,1.5221,1.5214,1.5215,1.5206,1.5202,1.5205,1.5193,1.5194,1.5193,1.5189,1.5187,1.5207,1.5197,1.5207,1.5222,1.5226,1.5229,1.5231,1.5238,1.5241,1.5208,1.5208,1.5208,0,1.5246,1.5247,1.5236,1.5239,1.5237,1.5222,1.5228,1.5224,1.5218,1.5217,1.521,1.5209,1.5204,1.5209,1.5214,1.5213,1.5214,1.5208,1.5229,1.5231,1.5233,1.524,1.5242,1.521,1.521,1.5209,1.5209,0,1.5266,1.5267,1.5273,1.5267,1.5266,1.527,1.5259,1.526,1.5252,1.5245,1.5249,1.5242,1.5239,1.524,1.5232,1.5244,1.5241,1.5232,1.5219,1.5238,1.5244,1.5246,1.5211,1.5211,1.5211,1.521,0,0,1.53,1.5288,1.529,1.5287,1.5279,1.528,1.5284,1.5281,1.5281,1.5278,1.528,1.528,1.5272,1.5269,1.5261,1.5265,1.5281,1.5256,1.5255,1.526,1.5294,1.5301,1.5304,1.5275,1.5275,1.5276,1.5294,0,1.5319,1.5325,1.5315,1.5322,1.5324,1.5309,1.5313,1.5308,1.5302,1.5302,1.5295,1.5295,1.5284,1.5283,1.5286,1.5279,1.5288,1.5277,1.5277,1.5277,1.5279,1.5307,1.5314,1.5332,1.5297,1.5297,1.5297,0,1.5343,1.534,1.5348,1.534,1.534,1.5343,1.534,1.534,1.5334,1.533,1.5327,1.5318,1.532,1.5309,1.5312,1.5305,1.5305,1.5301,1.5302,1.5301,1.5288,1.5306,1.5337,1.534,1.5301,1.5301,1.53,0,1.5366,1.5365,1.537,1.5368,1.5358,1.5361,1.5357,1.5351,1.535,1.5347,1.5346,1.5344,1.5342,1.534,1.533,1.5323,1.5335,1.5323,1.5331,1.5331,1.5334,1.5334,1.5365,1.5334,1.5334,1.5334,1.5334,0,1.5389,1.5395,1.538,1.5383,1.5389,1.5377,1.5383,1.5378,1.5372,1.5374,1.5361,1.5363,1.535,1.535,1.5342,1.5346,1.5346,1.5342,1.534,1.5343,1.5343,1.5342,1.534,1.5335,1.5335,1.5334,1.5334,0,1.5417,1.5407,1.5411,1.5402,1.54,1.5404,1.5396,1.5398,1.5391,1.5393,1.5393,1.5382,1.5382,1.5372,1.5369,1.5364,1.5371,1.5367,1.5373,1.5371,1.538,1.5379,1.5411,1.5414,1.5382,1.5382,1.5383,0,1.5431,1.5435,1.5426,1.5427,1.5423,1.5424,1.5423,1.5411,1.5411,1.5405,1.5408,1.5406,1.5404,1.5404,1.5396,1.5394,1.5389,1.5401,1.5389,1.5392,1.5389,1.5389,1.5389,1.5403,1.5403,1.5404,1.5404,0,1.5459,1.5454,1.5453,1.5451,1.545,1.5447,1.5444,1.5445,1.5432,1.5432,1.5432,1.5431,1.5428,1.5427,1.5423,1.5419,1.5409,1.5408,1.5409,1.5412,1.5416,1.5414,1.5379,1.5407,1.5407,1.5406,1.5406,1.5406,1.548,1.5483,1.5477,1.5477,1.5473,1.547,1.5472,1.5465,1.5465,1.5462,1.5455,1.5455,1.545,1.5444,1.5441,1.5441,1.5435,1.5438,1.5438,1.5439,1.544,1.5416,1.544,1.544,1.544,1.544,1.544,0,1.5507,1.5503,1.5502,1.5498,1.5498,1.5489,1.5485,1.5485,1.5485,1.5481,1.548,1.5479,1.5478,1.5469,1.5467,1.5469,1.5464,1.5468,1.5468,1.5467,1.5446,1.5444,1.5472,1.5472,1.5472,1.5472,1.5472,1.5472,1.5521,1.5525,1.552,1.5522,1.5517,1.5518,1.5516,1.5513,1.551,1.5509,1.5508,1.5503,1.5497,1.5494,1.5493,1.549,1.549,1.5495,1.5491,1.5472,1.5469,1.5466,1.5464,1.5495,1.5495,1.5513,1.5513,1.5513]},{"header":{"parameterUnit":"m.s-1","parameterCategory":1,"la1":30.2991,"la2":30.254,"lo1":-89.0895,"lo2":-89.0444,"dy":0.0017,"dx":0.0017,"nx":28,"ny":28,"refTime":"2025-12-31T09:00:00:Z","depth":0,"parameterNumber":3,"parameterNumberName":"V-component_of_WINDS"},"data":[0,0,0,0,0,0,0,0,0,0,0,0,0,0,0,0,0,0,0,0,0,0,0,0,0,0,0,0,0,0,0,0,0,0,0,0,0,0,0,0,0,0,0,0,0,0,0,0,0,0,0,0,0,0,0,0,0,0,-0.2527,-0.2528,0,-0.2617,-0.2618,-0.2619,-0.2643,-0.2643,-0.2642,-0.2641,-0.2735,-0.2738,-0.2741,0,0,0,0,0,0,0,0,0,0,0,0,0,-0.2379,-0.2382,-0.2527,-0.2528,-0.253,-0.2617,-0.2618,-0.2619,-0.2643,-0.2643,-0.2642,-0.2641,-0.2734,-0.2738,-0.2741,0,0,0,0,0,0,0,0,0,0,0,0,0,-0.2454,-0.2383,-0.2527,-0.2552,-0.2555,-0.2617,-0.2618,-0.262,-0.2643,-0.2642,-0.2642,-0.2641,-0.2733,-0.2738,-0.2742,-0.2786,0,0,-0.2756,-0.2758,0,0,0,0,0,0,0,0,-0.245,-0.2459,-0.2547,-0.255,-0.2554,-0.2618,-0.26,-0.2675,-0.2644,-0.261,-0.2641,-0.2641,-0.2697,-0.2704,-0.2723,-0.279,-0.2794,-0.2756,-0.2759,-0.2761,-0.2762,0,0,0,0,0,0,0,-0.2444,-0.2456,-0.2563,-0.2548,-0.2553,-0.2559,-0.2569,-0.2615,-0.2657,-0.2613,-0.2615,-0.2625,-0.2699,-0.2719,-0.2726,-0.2796,-0.2756,-0.276,-0.2763,-0.2765,-0.2906,-0.2907,0,0,0,0,0,0,-0.2435,-0.2451,-0.256,-0.2566,-0.2499,-0.2563,-0.2574,-0.2598,-0.2657,-0.2665,-0.2625,-0.2626,-0.2711,-0.272,-0.2729,-0.2786,-0.2761,-0.2765,-0.2768,-0.2905,-0.2906,-0.2907,0,0,0,0,0,0,-0.2431,-0.2444,-0.2556,-0.2509,-0.2524,-0.2566,-0.2594,-0.26,-0.2621,-0.2666,-0.2674,-0.2638,-0.2711,-0.2723,-0.2772,-0.279,-0.2767,-0.2771,-0.2903,-0.2905,-0.2907,-0.2899,0,0,0,0,0,0,-0.2427,-0.2443,-0.2459,-0.2509,-0.2526,-0.2597,-0.2595,-0.2603,-0.2628,-0.2629,-0.268,-0.2688,-0.2711,-0.2765,-0.2776,-0.2795,-0.2775,-0.2902,-0.2904,-0.2906,-0.2898,-0.2901,-0.2903,0,0,0,0,0,-0.2422,-0.2454,-0.246,-0.2473,-0.2547,-0.2598,-0.2608,-0.2634,-0.2629,-0.2647,-0.2676,-0.2686,-0.2785,-0.277,-0.2783,-0.2803,-0.2901,-0.2904,-0.2906,-0.2897,-0.29,-0.2903,0,0,0,0,0,0,-0.2405,-0.2461,-0.2468,-0.2517,-0.2553,-0.2602,-0.2625,-0.2636,-0.2674,-0.2674,-0.2705,-0.2716,-0.2764,-0.2788,-0.277,-0.285,-0.2844,-0.2849,-0.2833,-0.2836,-0.2838,-0.2832,-0.2778,0,0,0,0,0,-0.2407,-0.2443,-0.2489,-0.2528,-0.2546,-0.2582,-0.2605,-0.2622,-0.2661,-0.2676,-0.2709,-0.2746,-0.2786,-0.2812,-0.2851,-0.2901,-0.2914,-0.2922,-0.2924,-0.2926,-0.293,-0.2961,-0.2966,-0.2915,-0.2915,-0.2915,0,0,-0.2412,-0.2447,-0.2467,-0.2526,-0.2555,-0.2593,-0.2595,-0.2634,-0.2662,-0.2682,-0.2731,-0.2757,-0.2801,-0.2851,-0.2875,-0.2873,-0.2947,-0.2929,-0.293,-0.2934,-0.2964,-0.2969,-0.2973,-0.2917,-0.2916,-0.2916,0,0,-0.244,-0.2469,-0.2505,-0.2535,-0.258,-0.2604,-0.2612,-0.266,-0.2678,-0.2728,-0.2744,-0.2778,-0.2846,-0.2877,-0.2902,-0.2943,-0.2954,-0.2954,-0.2966,-0.2996,-0.3,-0.3003,-0.302,-0.3025,-0.2958,-0.2958,-0.2958,0,-0.2441,-0.2497,-0.2523,-0.2562,-0.2588,-0.2607,-0.2645,-0.2672,-0.2728,-0.2746,-0.2742,-0.2829,-0.2859,-0.2919,-0.2929,-0.2947,-0.296,-0.295,-0.2997,-0.3001,-0.3005,-0.3021,-0.3027,-0.2958,-0.2958,-0.2958,-0.2958,0,-0.2496,-0.2535,-0.2559,-0.2612,-0.2641,-0.2679,-0.2712,-0.2738,-0.2752,-0.2777,-0.2829,-0.2866,-0.2914,-0.2929,-0.2943,-0.2991,-0.2988,-0.299,-0.2985,-0.3009,-0.3025,-0.3031,-0.2958,-0.2958,-0.2958,-0.2958,0,0,-0.2517,-0.2584,-0.2593,-0.2618,-0.2669,-0.27,-0.274,-0.2786,-0.2809,-0.2846,-0.2882,-0.2938,-0.2941,-0.2969,-0.2987,-0.3013,-0.3046,-0.3012,-0.3014,-0.3019,-0.3103,-0.3102,-0.3109,-0.3052,-0.3054,-0.3055,-0.31,0,-0.2554,-0.2625,-0.2649,-0.2709,-0.2746,-0.2765,-0.2799,-0.2835,-0.2859,-0.2895,-0.2922,-0.2963,-0.2962,-0.298,-0.3006,-0.3036,-0.3063,-0.3033,-0.3087,-0.3089,-0.3078,-0.3117,-0.3117,-0.3157,-0.3106,-0.3107,-0.3108,0,-0.2605,-0.2644,-0.2706,-0.2754,-0.2771,-0.2801,-0.2847,-0.288,-0.2922,-0.2938,-0.297,-0.2986,-0.303,-0.302,-0.3082,-0.306,-0.3084,-0.3102,-0.3105,-0.3113,-0.3101,-0.3128,-0.3171,-0.3178,-0.3117,-0.3116,-0.3116,0,-0.2617,-0.2684,-0.2731,-0.2752,-0.2808,-0.2829,-0.2854,-0.2894,-0.2921,-0.2961,-0.2979,-0.3023,-0.3048,-0.3082,-0.3111,-0.3101,-0.3171,-0.3163,-0.3187,-0.3187,-0.3203,-0.3202,-0.3252,-0.3214,-0.3214,-0.3214,-0.3214,0,-0.2656,-0.2694,-0.2737,-0.2766,-0.281,-0.2839,-0.2882,-0.2907,-0.2943,-0.2979,-0.2997,-0.303,-0.3065,-0.3103,-0.3125,-0.3174,-0.3185,-0.32,-0.3206,-0.32,-0.3198,-0.3218,-0.3216,-0.3216,-0.3215,-0.3215,-0.3215,0,-0.2678,-0.2707,-0.276,-0.2809,-0.2822,-0.2853,-0.2895,-0.2925,-0.295,-0.2994,-0.3006,-0.3046,-0.3092,-0.3123,-0.3182,-0.3197,-0.3251,-0.3255,-0.3237,-0.324,-0.3263,-0.3262,-0.333,-0.3341,-0.3293,-0.3294,-0.3294,0,-0.2701,-0.2731,-0.2784,-0.2808,-0.2833,-0.2872,-0.29,-0.2929,-0.2957,-0.3007,-0.3031,-0.3078,-0.3117,-0.319,-0.3224,-0.327,-0.3277,-0.3298,-0.3284,-0.3277,-0.328,-0.3279,-0.3283,-0.33,-0.3301,-0.3301,-0.3301,0,-0.2741,-0.2755,-0.2794,-0.2838,-0.2871,-0.2907,-0.2944,-0.2963,-0.2999,-0.303,-0.3077,-0.3107,-0.3167,-0.3214,-0.3263,-0.3289,-0.3302,-0.3305,-0.3313,-0.3308,-0.3297,-0.3306,-0.3245,-0.3304,-0.3303,-0.3303,-0.3303,-0.3303,-0.2767,-0.2795,-0.2836,-0.2879,-0.291,-0.2944,-0.2975,-0.3004,-0.3043,-0.3094,-0.3109,-0.3158,-0.32,-0.3267,-0.3294,-0.3334,-0.3333,-0.3344,-0.3348,-0.3351,-0.3352,-0.3289,-0.3343,-0.3343,-0.3343,-0.3343,-0.3343,0,-0.281,-0.2837,-0.2876,-0.2927,-0.2962,-0.2969,-0.301,-0.3039,-0.3082,-0.312,-0.3158,-0.3213,-0.3259,-0.3297,-0.3345,-0.3369,-0.3377,-0.3381,-0.3381,-0.3387,-0.3349,-0.3338,-0.3375,-0.3375,-0.3375,-0.3375,-0.3375,-0.3375,-0.2836,-0.2885,-0.2904,-0.2968,-0.2996,-0.3044,-0.3068,-0.31,-0.313,-0.319,-0.3228,-0.3253,-0.3292,-0.3342,-0.3385,-0.3396,-0.3413,-0.3417,-0.3429,-0.3393,-0.339,-0.3386,-0.3376,-0.342,-0.342,-0.3464,-0.3465,-0.3465]}]]